FENGYUN 1C DEB

Satellite information

Favourite Embed

Satellite Type and Status

DEBRISIN ORBIT

Key statistics

Satellite FENGYUN 1C DEB at a glance.

Uptime

9495

Days in orbit

Revolutions

≈ 14.1

Per day

Orbit

SSO

Sun Synchronous Orbit

Inclination

99.2

Latest

Satellite identification and parameters

Extended collection of information and parameters for FENGYUN 1C DEB.

Object identification

Identified? True

Debris? True

Object name: FENGYUN 1C DEB

International designator: 1999-025VT

Object number (NORAD): 30210

Object ID (CCSDS): 30210

Country: PEOPLES REPUBLIC OF CHINA (PRC)

Current information (Y/N): Y

RCS size: SMALL

Orbital parameters

Period: 102.29 minutes

Inclination: 99.2096 deg

SMA: 7245.175 km

Apoapsis: 907.971 km

Periapsis: 826.11 km

RAAN: 173.268 deg

Eccentricy: 0.0056493

Argument of periapsis: 27.4517 deg

Mean anomaly: 99.006 deg

Mean motion: 14.07762564 rev/day

Mean motion (dot): 0.0000137 rev/day2

B* drag term: 0.00082448 1/REarth

Two-line elements (TLE)

Creation date: May 8, 2025, 3:01 a.m.

Reference frame: TEME

Reference center: EARTH

Epoch: May 7, 2025, 5:16 p.m. UTC

TLE line 0: 0 FENGYUN 1C DEB

TLE line 1: 1 30210U 99025VT 25127.71977902 .00001370 00000-0 82448-3 0 9990

TLE line 2: 2 30210 99.2096 173.2680 0056493 27.4517 99.0060 14.07762564936759

Live tracking on map

Real-time ground track for satellite FENGYUN 1C DEB.

In-orbit conjunctions

A list of the most updated potential collisions computed for object FENGYUN 1C DEB.

Target Orbit TCA Probability of collision Miss distance Type
METEOR 1-11 LEO 2025-03-19 04:05:04 0.0001090281 573.0 (m) PAYLOAD
FENGYUN 1C DEB SSO 2024-09-12 06:34:40 0.0001874561 101.0 (m) DEBRIS
THORAD AGENA D DEB LEO 2024-08-15 17:15:53 0.0001778222 354.0 (m) DEBRIS

Associated space launch

Chinese polar orbiting meteorological satellite

FENGYUN 1C DEB was lifted into orbit during the mission ‘Long March 4B | Feng Yun 1C’, on board a Long March 4B space rocket.

The launch took place on May 10, 1999, 1:33 a.m. from Launch Complex 7.

For more information about the launch, click the button.

Launch to space Long March 4B | Feng Yun 1C
Long March 4B | Feng Yun 1C

Agency: N/A

Status: Launch Successful

Launch date: May 10, 1999, 1:33 a.m. UTC

Rocket: Long March 4B

Launch pad: Launch Complex 7

Location: Taiyuan Satellite Launch Center, People's Republic of China

...

Latest news about this satellite

There are no fresh news available about this satellite. Check back as we update our databases every day.


Newsletter sign-up

Weekly statistics, charts and insights to help you stay on top of the space industry.